RH
74 76 78 84 87 89 89 90 89 89 90 89 87 86 85 85 86 90 93 94 94 96 98 98 98 98 99 99 99 100 99 84 88 92 86 88 93 94 96 98 93 89 76
77 86 82 84 89 88 89 89 88 90 89 90 89 89 89 88 91 94 94 92 97 96 94 98 97 98 98 99 99 99 97 84 83 92 92 91 93 90 87 90 82 75 78
79 81 87 90 92 90 91 91 90 89 88 85 89 92 94 94 93 93 93 92 93 93 93 95 97 98 98 99 99 99 94 81 84 86 95 90 92 94 92 88 89 87 81
80 84 86 89 91 91 93 92 92 92 92 92 90 92 92 92 92 93 92 94 94 93 94 94 94 97 99 99 99 98 92 84 87 84 93 92 86 91 94 95 97 93 87
88 90 91 92 92 94 96 96 94 92 89 89 92 92 92 90 82 93 95 96 96 94 92 92 95 94 96 97 97 98 91 85 83 83 91 92 90 92 98 97 96 96 97
92 93 96 96 96 97 95 95 95 92 90 92 92 92 93 87 99 100 99 99 94 94 96 95 95 96 97 98 89 90 89 86 89 83 88 90 93 89 84 97 98 99 99
97 98 98 97 97 96 96 96 95 94 94 95 95 95 94 98 99 99 99 95 96 97 98 97 97 95 96 87 90 88 86 80 77 84 85 86 89 87 89 98 97 98 98
96 94 95 95 95 96 97 96 97 96 97 98 96 98 98 98 99 99 99 95 96 96 96 95 94 92 92 88 88 89 82 82 78 64 78 82 81 85 84 89 91 97 94
94 94 95 95 96 96 96 96 97 96 99 98 98 99 98 98 99 99 99 97 95 97 96 94 91 90 92 90 84 92 90 92 91 88 85 87 87 88 84 78 90 98 96
96 96 95 94 94 95 96 97 98 97 97 94 97 97 99 98 99 99 98 96 99 99 98 96 91 85 91 84 83 84 89 86 88 87 85 89 88 87 90 82 83 88 90
96 96 94 92 94 95 95 95 96 97 98 97 96 97 97 97 98 99 99 92 98 99 99 99 97 93 93 86 85 80 86 87 86 84 81 80 81 80 80 87 88 83 91
95 94 92 94 88 87 94 96 96 96 98 98 98 96 97 96 98 97 98 99 97 99 100 99 97 93 94 93 98 97 92 84 74 77 78 82 74 75 83 88 92 91 89
94 95 94 94 92 92 94 96 96 96 95 93 97 98 97 93 94 97 99 98 97 96 99 100 98 96 98 100 97 94 90 77 76 80 80 80 76 73 86 91 92 93 93
94 96 94 95 96 96 93 92 94 96 97 95 91 93 94 93 91 97 97 98 97 97 98 98 99 94 98 97 95 90 85 74 70 70 74 79 83 86 86 87 90 93 95
93 94 94 94 95 97 97 95 93 97 93 86 86 89 87 86 97 100 99 98 99 99 99 100 99 100 99 99 97 95 98 97 82 80 77 80 83 80 82 86 88 92 94
85 88 93 92 94 94 95 97 98 99 98 98 99 92 84 97 99 99 100 100 100 100 100 100 100 99 99 99 98 99 98 96 97 97 89 78 85 85 81 85 85 87 92
87 87 93 92 92 94 92 93 96 98 98 100 100 99 99 99 98 98 100 100 100 100 99 99 99 99 99 99 99 98 97 97 93 94 93 95 87 86 84 79 82 84 88
87 94 87 91 93 92 89 87 84 86 88 91 99 97 97 99 98 98 98 93 96 97 98 99 99 99 99 99 99 99 98 98 97 94 93 94 94 92 87 82 78 81 80
98 98 90 90 90 90 87 87 86 88 91 94 92 89 94 100 96 92 92 88 94 93 95 98 98 98 99 99 99 99 99 98 97 97 94 96 96 94 93 87 82 86 84
94 91 92 90 86 86 85 87 90 92 94 90 86 91 88 82 81 82 84 81 87 90 94 95 96 97 97 98 99 99 98 99 99 98 97 96 96 95 93 83 80 86 86
83 84 84 84 85 85 86 88 90 89 85 85 84 89 96 89 87 87 87 88 86 87 91 94 95 96 97 97 97 98 98 98 98 98 98 97 96 95 96 96 93 86 89
81 83 83 86 87 88 89 88 88 86 84 84 84 83 95 82 88 89 89 88 88 90 94 95 96 96 95 96 97 96 97 98 97 98 97 98 97 95 95 95 93 94 95
79 82 85 86 83 85 83 82 84 85 86 83 82 85 87 91 93 95 95 92 93 94 94 94 94 94 93 93 92 96 96 96 98 98 98 98 97 97 96 95 94 94 94
76 79 82 84 83 81 81 85 86 89 86 83 82 89 93 95 95 95 94 93 92 93 94 94 94 93 93 92 91 91 95 97 97 97 97 98 98 98 96 96 93 91 93
73 77 78 82 82 82 84 88 89 87 90 92 92 96 97 94 92 91 90 90 91 93 92 93 93 88 86 87 88 89 95 100 96 96 96 97 97 98 97 97 95 90 86
76 77 82 84 85 86 89 91 90 89 92 91 93 96 95 92 91 90 90 89 92 91 89 88 88 85 85 87 87 93 97 99 97 98 96 97 98 98 97 98 93 93 85
Wind_Speed
11 9 9 8 8 6 6 5 5 4 5 5 5 5 6 5 5 5 6 6 8 8 5 9 8 7 8 7 6 3 2 3 3 2 1 3 4 6 4 4 4 3 3
8 7 9 7 7 7 7 6 5 6 4 5 4 5 5 6 6 6 7 6 8 8 7 8 9 6 9 6 5 5 3 5 4 7 3 3 4 5 5 6 5 4 4
9 9 7 9 8 9 8 6 5 4 4 5 5 5 5 5 6 6 6 7 7 8 8 7 7 6 7 5 6 5 4 4 3 5 4 2 3 4 4 4 4 4 3
9 9 9 9 9 8 5 5 5 4 4 3 3 5 4 5 6 7 7 7 7 7 8 7 7 6 6 7 6 7 6 6 4 6 4 3 3 3 3 3 3 2 3
8 8 9 6 7 6 6 6 5 3 3 3 3 4 6 6 6 6 7 8 8 8 7 8 7 6 8 10 6 7 8 6 6 6 4 3 4 4 4 3 3 3 1
9 9 7 7 7 8 7 7 5 3 1 2 3 5 7 6 11 9 6 5 7 7 6 5 5 3 5 6 10 14 14 11 7 6 4 7 6 5 5 3 3 2 2
6 6 6 7 8 8 7 6 4 3 3 4 6 5 7 9 14 11 10 5 6 7 6 4 2 3 6 7 8 11 10 9 12 8 8 7 7 7 6 5 3 3 2
8 8 8 9 9 8 7 7 6 4 5 5 6 6 7 8 13 13 10 5 5 6 6 5 3 3 4 7 7 7 7 5 6 5 7 8 5 8 7 3 6 4 3
10 10 10 10 10 9 8 7 6 6 6 7 5 6 6 9 14 15 9 8 7 6 5 5 3 4 5 8 8 7 6 3 4 5 6 8 7 10 9 5 4 3 2
10 10 9 8 9 9 7 6 4 6 7 7 8 7 7 8 15 15 9 5 6 6 5 5 4 4 7 7 6 6 5 3 4 6 6 8 6 8 10 4 6 5 2
9 9 8 7 9 8 7 5 6 7 6 7 8 6 7 7 8 11 12 7 4 4 4 3 2 4 7 7 6 4 4 5 8 7 6 6 6 5 4 2 4 3 3
11 10 7 7 7 6 9 6 7 7 7 5 6 5 5 6 9 11 11 8 9 4 4 3 2 7 7 9 6 6 8 8 5 6 5 4 5 5 3 2 3 3 3
12 11 9 7 7 6 7 7 6 5 5 5 4 5 4 5 5 8 7 9 8 4 4 6 6 9 8 5 5 7 6 5 5 4 4 3 2 4 3 3 3 2 2
12 11 9 9 7 6 5 4 5 4 5 6 6 5 4 5 6 7 7 6 6 5 5 4 1 5 6 5 4 5 2 3 6 5 5 4 4 3 4 3 2 2 1
9 9 8 8 8 8 7 5 5 4 5 6 5 4 4 5 5 7 4 4 3 4 6 0 2 2 3 3 3 5 5 3 4 5 5 6 4 5 4 4 2 3 1
7 7 6 7 7 7 6 6 14 12 15 14 11 6 4 4 5 10 12 7 5 3 1 2 1 1 3 3 4 4 5 9 6 5 6 8 6 5 5 3 3 3 2
7 8 7 7 8 7 5 6 6 4 7 8 9 8 6 3 9 12 12 8 12 5 4 6 6 5 1 2 4 5 5 5 3 3 5 4 5 6 8 6 5 3 3
11 12 4 6 8 6 4 5 4 3 3 3 6 9 10 10 9 11 13 8 6 7 5 5 5 6 6 5 2 4 5 3 4 4 4 4 4 5 7 6 6 6 5
11 5 3 4 6 8 5 5 4 4 4 4 3 6 9 8 7 10 11 7 6 7 6 5 5 5 5 5 6 4 4 4 4 4 4 4 4 3 5 6 6 8 6
8 12 9 6 6 5 4 4 5 4 4 5 4 5 6 4 6 6 7 6 5 5 5 6 6 5 5 5 5 5 6 4 5 5 6 5 4 5 4 5 7 6 6
8 6 11 7 6 5 4 3 5 5 5 4 4 4 7 6 6 6 6 5 6 6 5 5 6 6 5 5 5 5 5 6 8 5 5 6 7 6 5 5 5 7 6
8 7 6 6 5 5 5 4 4 5 5 5 4 5 7 6 5 5 5 5 4 4 3 4 4 5 5 6 6 6 6 6 6 7 8 5 7 7 7 7 6 6 7
9 9 8 7 7 7 4 5 5 5 7 5 4 3 5 5 4 5 5 4 5 4 3 3 4 4 5 5 6 6 6 7 6 7 7 7 8 7 8 7 8 7 8
9 9 8 7 6 6 5 5 5 7 6 4 3 4 4 4 4 5 4 5 4 4 4 4 4 6 7 7 7 5 5 4 6 6 9 8 8 9 8 8 9 12 9
9 8 8 7 6 6 6 5 4 3 5 4 4 4 4 4 5 5 5 5 5 5 5 4 4 8 9 12 9 8 6 9 11 10 7 9 9 11 10 9 10 10 10
8 8 6 6 6 5 4 4 4 3 4 4 3 3 4 5 5 5 4 5 5 5 7 6 7 11 12 10 11 11 9 10 12 10 9 7 8 8 9 10 14 10 12
Wind_Direction
195 200 205 209 207 200 208 214 221 239 242 256 257 270 266 270 276 277 284 291 272 272 254 237 220 194 213 217 218 190 119 138 121 126 140 155 126 145 110 125 142 124 141
193 182 200 202 194 200 205 207 205 232 241 246 258 263 273 273 271 272 285 285 279 285 267 234 228 202 227 206 197 165 141 146 129 154 164 145 109 149 115 122 141 149 152
171 191 190 200 192 207 202 199 202 226 242 253 248 253 265 278 289 285 283 287 283 288 286 274 250 200 217 177 183 145 135 136 141 156 148 120 109 135 101 89 123 124 144
172 186 198 198 196 201 183 165 201 210 228 234 275 293 299 291 284 286 291 302 303 291 288 280 255 204 206 185 181 137 127 136 137 143 125 125 127 126 116 136 146 114 137
177 187 204 181 179 153 149 142 133 143 191 270 313 316 303 302 299 315 305 301 306 303 304 300 270 227 191 176 162 141 134 136 145 143 131 132 140 157 174 134 132 140 161
178 187 158 159 148 146 143 123 140 163 280 357 350 346 329 331 335 318 330 323 325 309 314 323 336 350 162 167 144 148 154 150 152 143 155 169 166 159 162 133 123 143 192
128 120 128 130 128 126 127 125 163 142 108 54 27 3 9 18 357 7 356 330 322 329 334 325 358 48 120 149 141 137 149 161 165 148 164 171 175 169 159 137 158 147 180
125 128 132 130 130 135 137 141 133 115 83 66 46 34 56 24 15 18 351 7 10 10 7 357 17 72 115 132 127 111 135 137 155 173 178 166 179 164 181 171 154 128 94
138 143 146 140 138 139 136 136 129 108 95 83 71 62 59 34 15 26 20 25 13 10 24 24 61 89 87 107 124 111 118 98 78 153 130 140 149 153 153 147 156 134 201
151 145 140 138 134 133 134 128 115 107 111 108 94 80 62 56 28 25 22 30 22 0 5 30 72 123 115 116 115 123 109 99 124 131 116 101 137 148 159 191 162 173 171
129 128 130 129 128 127 118 115 118 113 114 116 102 88 78 53 44 30 23 36 4 351 4 18 33 108 108 84 93 96 110 133 110 119 120 116 121 133 155 175 188 178 218
132 125 117 119 122 118 115 111 112 117 110 109 105 91 70 48 42 21 14 12 9 360 1 0 95 139 122 108 91 109 128 118 124 122 127 126 144 145 170 177 170 206 235
135 130 122 120 114 113 117 119 111 109 105 97 83 74 46 28 23 12 4 351 4 359 0 331 150 135 123 110 108 144 165 132 141 144 150 153 220 142 152 167 144 136 152
134 130 127 124 113 95 82 75 94 102 97 94 90 72 40 23 16 360 350 349 351 344 5 355 205 134 146 128 123 158 303 178 157 164 159 144 141 152 178 186 192 161 175
125 122 117 113 107 91 66 60 85 44 90 109 97 83 47 26 356 303 290 329 345 331 324 105 94 120 175 192 163 165 130 254 186 170 168 154 168 178 189 186 188 163 202
128 111 114 113 107 106 101 83 43 63 71 69 59 67 71 50 331 352 356 1 7 12 115 11 24 180 186 184 194 176 178 206 205 221 193 170 173 187 186 180 191 206 184
86 103 107 125 117 121 124 121 121 67 73 81 69 62 54 54 22 5 3 21 30 37 47 26 14 3 322 196 184 198 221 214 182 214 221 232 187 177 170 179 185 222 211
91 59 115 135 117 114 123 124 130 136 122 89 65 46 16 22 30 15 13 39 31 27 16 28 20 6 354 341 230 222 235 204 196 216 218 209 215 189 177 165 197 206 211
103 106 110 85 105 106 124 115 113 109 108 87 47 15 355 9 38 37 37 55 42 15 4 1 5 1 356 348 354 312 240 240 209 217 204 214 193 193 205 166 187 209 195
106 141 136 127 102 112 126 124 112 105 96 90 65 25 358 29 33 30 31 32 34 43 4 349 346 346 350 352 346 340 342 256 225 215 215 206 188 192 220 190 175 182 204
126 128 127 98 114 122 113 119 127 121 107 87 77 49 20 53 31 18 25 22 12 12 8 345 336 332 348 350 345 345 337 325 334 266 209 207 203 204 185 227 184 177 186
118 120 110 110 113 119 131 120 114 104 84 74 56 45 51 52 32 28 22 18 15 351 344 340 335 328 342 345 342 338 335 333 337 337 341 272 214 210 198 190 197 174 188
116 118 118 119 122 115 112 107 105 108 84 65 48 48 54 42 26 21 356 21 354 342 343 2 352 342 346 341 334 329 333 327 336 340 320 311 300 208 200 195 193 196 187
117 121 121 119 120 125 113 103 89 75 88 84 67 51 47 48 14 5 359 359 0 342 343 357 357 342 339 339 331 324 323 352 333 316 321 306 291 283 199 195 195 200 193
114 119 124 122 118 110 107 86 80 98 95 85 58 40 37 34 23 12 1 355 353 333 346 350 348 336 333 327 323 322 323 307 303 293 283 278 287 286 263 204 199 194 189
108 111 108 112 110 110 115 131 141 117 87 58 39 38 46 50 20 356 349 358 341 346 350 346 338 336 327 321 314 314 298 276 289 279 276 261 259 267 277 221 207 197 189